Wind_Speed
35 37 40 43 44 48 52 55 60 64 69 73 72 72 73 75 77 75 71 72 71 70 69 66 67 69 71 71 69 66 64 64 61 57 47 50 58 57 57 54 46 45 45 44
37 39 42 44 48 53 58 62 65 68 72 75 67 58 47 49 53 56 58 67 73 69 73 73 70 69 72 73 72 69 66 66 67 64 61 50 45 48 52 55 54 48 46 46
39 42 43 47 53 58 63 67 68 71 60 38 44 34 35 37 37 33 32 30 40 53 68 74 76 73 72 74 73 72 69 67 67 66 65 59 57 52 48 47 50 50 49 46
43 43 47 53 59 63 64 67 63 41 32 34 38 41 36 35 34 38 31 21 28 33 45 64 73 75 74 72 74 72 72 69 67 66 66 62 60 57 54 52 43 37 47 49
43 47 51 57 61 64 65 61 40 21 32 28 28 34 31 28 34 38 34 30 30 31 35 43 58 71 73 74 72 72 71 71 67 67 66 63 64 59 55 51 51 50 40 48
45 49 53 59 62 65 62 44 24 25 26 23 32 32 29 31 34 28 28 28 37 36 40 39 44 54 69 73 73 70 70 69 69 67 65 64 62 64 57 52 50 49 48 52
46 51 56 62 64 64 51 32 20 22 28 30 33 34 30 35 36 38 34 27 28 35 39 35 36 43 51 64 70 71 68 69 69 68 67 65 61 60 60 56 53 51 50 51
48 53 60 63 65 63 36 25 24 29 33 33 33 36 36 37 43 44 44 45 45 39 32 39 39 36 40 55 65 68 67 66 68 67 67 66 63 60 59 58 54 53 50 48
50 54 59 65 63 45 27 24 24 31 35 38 35 39 41 46 48 48 50 50 45 38 33 36 39 36 36 50 61 65 65 63 64 64 65 64 63 61 58 57 56 53 50 47
50 54 60 61 52 29 24 22 25 32 41 45 43 45 50 50 51 57 58 48 35 31 32 43 41 32 35 40 57 61 62 61 60 61 62 64 60 58 58 57 55 57 50 47
51 56 57 58 30 21 22 21 28 34 39 43 48 46 51 53 58 55 42 38 35 31 26 28 42 35 30 35 43 53 56 58 57 58 61 60 60 57 56 55 55 55 51 48
49 55 53 44 18 19 19 22 29 36 41 40 44 43 48 52 48 37 34 34 35 39 35 27 24 37 27 29 36 40 47 50 53 54 56 55 56 56 54 53 53 55 50 49
48 50 50 32 12 16 21 25 31 38 38 38 42 42 42 50 41 34 35 40 42 40 38 29 20 21 31 17 24 34 40 44 46 50 53 52 52 54 52 52 48 49 50 49
45 43 45 28 14 14 19 28 33 37 37 38 39 40 43 50 44 36 37 37 42 43 43 29 9 13 16 15 19 26 34 40 44 46 49 50 50 52 51 47 40 44 44 45
44 37 37 28 12 15 20 26 31 35 35 35 32 34 43 50 56 43 37 35 37 37 41 31 7 1 5 13 16 19 24 33 38 42 45 46 47 48 50 45 41 29 41 32
40 36 35 30 11 14 18 23 28 33 31 29 29 31 40 43 48 48 35 32 29 34 37 29 18 14 14 17 14 12 16 23 31 37 42 42 44 46 46 46 35 39 43 44
36 35 34 30 10 13 17 22 27 32 31 27 25 31 37 40 43 49 46 41 29 20 26 27 21 19 20 18 12 8 10 14 23 30 34 30 44 43 43 50 51 48 33 36
34 34 32 28 12 13 17 22 26 30 32 28 26 30 35 33 36 43 47 45 40 30 19 26 15 13 11 12 10 8 11 15 21 22 26 28 33 38 41 47 58 57 29 28
32 31 31 27 10 11 16 21 24 28 30 26 24 27 27 28 32 34 43 45 46 37 24 16 15 21 10 10 13 23 26 24 25 25 14 18 18 20 29 40 51 50 39 45
29 29 28 24 12 10 14 20 23 26 28 24 21 24 22 26 29 31 33 40 43 40 38 36 29 16 21 25 26 23 23 24 22 27 19 16 24 22 19 21 34 46 37 32
27 27 24 22 17 10 15 18 20 25 27 18 19 15 19 23 26 33 34 33 34 38 39 38 39 35 20 13 22 20 17 20 24 20 19 16 14 20 19 24 29 31 28 30
27 28 23 21 17 11 13 17 20 22 22 18 15 12 21 23 22 24 28 29 31 33 32 34 39 35 33 32 26 18 15 14 13 11 13 18 18 18 22 26 22 24 25 26
26 27 24 21 17 9 11 15 17 18 17 15 11 14 17 18 19 21 22 25 25 26 30 31 28 29 30 29 29 31 23 27 27 24 23 26 27 27 23 21 21 18 12 8
26 27 23 18 13 11 11 13 15 14 12 9 10 16 15 16 17 19 20 21 22 23 24 23 25 26 26 22 21 20 17 16 14 12 11 15 16 13 9 6 2 3 8 11
24 23 21 15 7 9 11 10 11 10 9 10 11 11 13 14 16 17 17 18 19 21 21 22 21 21 21 20 18 16 15 13 11 9 8 7 6 5 5 8 12 15 17 17
17 19 16 9 8 9 5 8 9 7 10 7 8 11 11 11 13 14 15 16 17 17 17 19 19 19 18 16 15 14 13 11 9 8 7 9 11 12 13 14 16 18 19 20
Wind_Direction
315 315 313 312 310 309 309 308 309 308 306 305 302 300 292 285 279 273 266 260 255 250 249 247 245 242 242 240 240 239 237 236 235 240 237 229 238 240 238 237 235 240 244 247
315 315 314 313 311 311 311 311 312 313 312 311 308 307 307 301 297 292 280 266 256 248 242 243 241 241 239 238 237 236 236 237 236 236 237 237 236 238 240 242 239 235 237 242
318 317 315 314 313 314 316 317 318 319 319 321 315 331 323 325 327 325 305 284 263 249 240 238 238 237 237 237 235 234 232 233 236 236 238 236 235 241 241 241 243 247 241 242
317 320 319 317 318 319 320 322 325 321 329 329 327 331 322 324 325 326 328 284 299 279 249 237 236 235 235 235 235 234 231 230 232 234 235 235 239 238 240 245 253 256 240 239
321 322 321 321 321 321 324 326 320 313 323 326 319 323 340 320 312 317 310 303 287 285 287 257 238 233 232 232 232 233 231 230 229 232 233 232 236 239 240 237 241 240 244 250
322 322 323 324 324 326 327 325 304 305 327 335 330 334 330 323 317 326 310 301 286 285 283 276 258 239 232 230 232 231 231 228 229 229 231 233 233 236 239 240 240 244 248 253
323 325 327 326 328 330 329 328 305 310 328 335 335 336 336 328 326 323 318 311 294 282 279 279 269 256 239 231 229 229 229 229 227 228 229 232 232 233 235 236 240 244 245 250
326 330 330 331 332 332 332 331 330 331 330 335 340 342 334 332 332 331 327 324 316 307 292 272 267 260 246 236 228 228 228 227 228 225 228 229 230 232 232 233 234 240 244 250
331 334 333 333 335 333 337 336 335 333 335 338 348 353 343 340 337 329 321 318 314 303 287 270 267 256 243 237 231 227 227 226 227 228 224 227 229 230 232 231 230 233 238 245
334 335 337 338 336 336 343 345 341 339 343 340 346 357 344 340 332 330 332 328 326 312 280 260 265 257 238 235 234 229 227 225 225 225 225 224 226 228 231 232 232 233 234 241
335 337 341 342 347 343 348 347 341 343 341 340 344 1 343 338 340 340 350 348 340 330 320 288 261 261 245 228 231 232 227 225 223 222 223 224 224 226 228 231 233 234 234 231
337 338 346 350 1 350 353 346 343 342 344 344 343 0 343 343 344 354 358 354 348 337 327 305 289 255 244 234 218 219 225 224 223 222 221 221 222 222 225 229 231 233 233 234
339 341 347 354 16 350 345 343 345 347 347 350 346 354 357 0 358 355 358 355 353 352 346 320 281 270 248 223 223 210 213 215 218 218 220 219 220 220 221 227 231 235 234 232
339 345 349 354 354 357 345 340 348 349 350 349 351 351 1 4 2 357 353 354 353 1 357 348 278 266 246 216 188 213 208 208 209 213 215 218 219 217 218 217 220 230 226 232
338 345 348 344 340 344 343 343 347 349 350 349 357 348 352 3 3 359 352 358 351 358 4 8 21 309 199 178 174 197 210 204 205 207 209 214 217 218 216 208 210 217 217 240
338 343 345 336 320 332 336 342 346 349 350 352 350 349 347 1 7 6 358 351 356 2 5 16 40 58 110 142 160 177 202 203 200 203 205 205 215 218 216 203 206 230 240 235
337 340 342 338 310 323 339 341 351 348 349 349 345 341 350 358 10 8 17 16 10 5 20 26 43 89 123 138 142 139 161 188 192 196 199 204 212 217 213 207 210 217 228 247
336 339 339 341 306 323 335 343 347 349 350 348 347 346 347 360 9 11 18 25 29 30 19 26 42 83 119 143 146 145 145 153 166 179 193 205 214 215 215 209 214 228 239 260
333 339 335 335 284 319 323 336 346 349 352 351 351 350 353 16 23 21 25 28 30 33 34 20 50 57 88 120 139 127 119 132 145 149 152 174 184 216 221 215 221 225 255 259
331 336 331 336 299 305 327 336 348 350 350 354 3 3 38 32 32 34 30 32 39 40 39 38 50 72 101 121 118 108 113 113 130 141 141 150 187 188 194 216 223 228 260 260
331 330 326 325 310 303 323 332 349 350 351 3 24 37 13 9 26 34 35 38 41 51 58 59 64 69 86 93 85 97 120 127 133 136 145 158 171 183 192 210 211 222 231 243
327 326 328 323 315 286 309 329 342 351 356 10 32 6 359 6 19 32 28 40 46 47 49 58 62 65 71 84 91 108 130 143 159 162 176 199 190 196 200 209 229 226 217 219
320 320 327 323 314 282 309 323 341 349 354 13 21 350 356 2 17 25 33 39 42 46 52 50 59 69 70 72 86 97 107 116 121 126 132 140 145 153 162 171 182 184 190 207
314 319 327 320 313 278 299 321 334 346 350 1 343 341 359 8 20 25 28 32 39 46 54 55 52 54 57 63 72 83 96 94 88 104 123 148 156 157 151 158 155 317 301 277
313 318 323 309 267 254 299 322 327 339 349 344 338 353 4 9 14 28 38 46 45 46 47 51 52 48 46 50 51 52 50 43 39 37 19 9 355 333 294 271 267 273 272 270
316 318 325 308 223 244 296 307 297 303 313 325 340 355 359 7 17 30 40 38 35 37 36 32 29 31 32 34 34 31 30 24 8 352 327 313 307 300 288 282 280 279 278 278
Height
5736 5733 5728 5724 5718 5713 5707 5701 5692 5683 5671 5665 5653 5647 5630 5621 5618 5619 5618 5617 5621 5625 5629 5634 5637 5642 5648 5655 5664 5673 5678 5684 5691 5695 5700 5707 5710 5717 5721 5723 5728 5732 5736 5738
5730 5725 5720 5714 5709 5702 5694 5686 5676 5668 5653 5637 5628 5621 5607 5598 5590 5586 5585 5586 5590 5597 5603 5610 5616 5621 5627 5634 5643 5654 5663 5669 5676 5683 5690 5697 5690 5704 5711 5714 5717 5721 5725 5728
5722 5717 5711 5706 5700 5692 5680 5668 5657 5641 5634 5624 5611 5612 5600 5592 5584 5577 5570 5569 5567 5570 5577 5584 5592 5599 5606 5614 5623 5633 5644 5653 5661 5669 5676 5684 5689 5694 5699 5705 5710 5713 5715 5719
5716 5708 5702 5695 5687 5679 5668 5653 5640 5628 5621 5616 5607 5602 5596 5588 5581 5572 5567 5563 5561 5557 5556 5560 5568 5578 5587 5595 5605 5615 5626 5637 5646 5655 5661 5671 5677 5684 5691 5697 5700 5702 5708 5711
5709 5701 5694 5686 5676 5664 5655 5641 5630 5625 5620 5614 5607 5599 5594 5585 5578 5570 5563 5557 5554 5551 5548 5546 5548 5554 5564 5574 5584 5597 5608 5621 5631 5639 5648 5657 5665 5673 5678 5686 5690 5694 5697 5701
5702 5694 5686 5676 5664 5651 5639 5631 5623 5619 5615 5610 5602 5596 5590 5580 5575 5568 5560 5553 5547 5543 5539 5535 5534 5537 5545 5556 5568 5580 5592 5603 5615 5625 5634 5642 5651 5659 5669 5676 5680 5684 5687 5690
5695 5686 5677 5666 5654 5640 5627 5619 5617 5615 5609 5605 5598 5591 5583 5574 5566 5558 5551 5545 5539 5533 5528 5525 5522 5525 5530 5538 5550 5562 5576 5589 5599 5611 5620 5629 5638 5648 5657 5664 5670 5675 5680 5682
5686 5677 5667 5655 5643 5629 5619 5615 5613 5609 5603 5599 5596 5586 5576 5568 5558 5548 5540 5533 5527 5521 5515 5512 5510 5511 5516 5523 5533 5547 5560 5573 5584 5595 5606 5617 5625 5636 5644 5652 5659 5665 5670 5673
5679 5670 5659 5647 5633 5621 5616 5614 5611 5604 5601 5593 5588 5581 5571 5559 5549 5541 5533 5522 5512 5506 5500 5496 5495 5496 5500 5509 5519 5532 5545 5557 5570 5582 5592 5604 5614 5625 5633 5640 5647 5654 5660 5665
5674 5664 5651 5641 5627 5618 5616 5614 5611 5604 5595 5585 5580 5573 5560 5551 5543 5530 5517 5505 5497 5490 5485 5482 5482 5485 5488 5496 5506 5519 5532 5544 5557 5568 5580 5590 5602 5613 5621 5629 5637 5644 5651 5656
5668 5659 5648 5634 5623 5618 5617 5613 5609 5604 5597 5587 5574 5572 5557 5546 5533 5522 5511 5501 5492 5484 5477 5471 5470 5473 5479 5484 5494 5506 5519 5532 5544 5555 5566 5580 5591 5601 5611 5619 5627 5633 5641 5649
5663 5654 5644 5632 5624 5621 5618 5614 5608 5603 5596 5588 5579 5572 5557 5546 5536 5522 5513 5502 5491 5480 5470 5465 5460 5461 5468 5476 5483 5495 5507 5521 5534 5547 5557 5569 5579 5589 5600 5609 5616 5622 5631 5638
5658 5650 5642 5632 5629 5623 5618 5612 5607 5601 5594 5587 5577 5569 5561 5548 5533 5522 5511 5501 5490 5477 5465 5456 5454 5453 5459 5470 5479 5486 5496 5510 5524 5536 5548 5559 5568 5579 5589 5599 5607 5614 5620 5624
5654 5646 5637 5631 5627 5624 5618 5611 5606 5599 5592 5584 5576 5565 5558 5546 5531 5521 5511 5501 5488 5477 5464 5451 5447 5450 5455 5467 5476 5482 5491 5502 5514 5527 5539 5550 5559 5569 5579 5589 5599 5606 5609 5614
5652 5646 5637 5631 5626 5622 5617 5612 5606 5600 5592 5584 5578 5569 5558 5544 5533 5520 5511 5501 5491 5480 5468 5455 5450 5452 5456 5467 5476 5481 5489 5497 5508 5521 5533 5543 5553 5562 5571 5581 5591 5596 5599 5602
5649 5642 5636 5629 5625 5621 5617 5612 5607 5600 5593 5586 5577 5571 5560 5550 5539 5525 5512 5501 5492 5485 5475 5465 5458 5457 5462 5471 5478 5483 5489 5497 5506 5516 5528 5538 5547 5557 5566 5575 5583 5588 5593 5598
5645 5638 5633 5626 5622 5620 5617 5612 5606 5599 5592 5585 5578 5572 5563 5554 5542 5531 5517 5503 5491 5487 5482 5475 5470 5467 5471 5476 5480 5485 5491 5498 5506 5516 5525 5533 5542 5552 5561 5569 5577 5581 5586 5590
5642 5636 5630 5625 5620 5619 5615 5610 5605 5599 5592 5585 5577 5571 5565 5557 5547 5538 5524 5509 5499 5492 5489 5485 5481 5480 5481 5483 5485 5488 5493 5499 5507 5516 5525 5534 5540 5548 5555 5564 5569 5574 5577 5577
5639 5633 5627 5622 5619 5618 5613 5610 5605 5599 5593 5586 5580 5574 5568 5560 5553 5546 5534 5521 5509 5501 5494 5490 5488 5487 5487 5488 5490 5492 5497 5503 5511 5519 5526 5533 5541 5546 5553 5560 5566 5570 5572 5573
5637 5631 5626 5621 5617 5615 5612 5608 5604 5599 5593 5587 5581 5577 5572 5567 5561 5551 5542 5534 5523 5513 5504 5497 5493 5496 5495 5497 5498 5502 5505 5509 5517 5523 5530 5535 5541 5547 5552 5557 5561 5568 5568 5570
5634 5629 5624 5619 5615 5614 5610 5607 5603 5600 5597 5588 5583 5580 5576 5571 5564 5557 5550 5543 5537 5529 5520 5514 5508 5505 5505 5507 5510 5512 5515 5518 5523 5528 5533 5538 5542 5546 5550 5555 5559 5563 5566 5568
5631 5626 5621 5617 5613 5612 5609 5606 5603 5600 5594 5589 5585 5583 5579 5574 5568 5562 5557 5552 5547 5542 5536 5530 5524 5522 5518 5517 5518 5520 5522 5525 5529 5532 5536 5540 5543 5547 5549 5552 5555 5558 5560 5562
5628 5625 5620 5615 5611 5610 5607 5605 5602 5599 5595 5591 5588 5585 5582 5576 5572 5567 5563 5558 5555 5551 5546 5542 5539 5535 5534 5533 5531 5532 5532 5533 5535 5537 5540 5542 5544 5547 5550 5551 5554 5557 5559 5560
5625 5620 5616 5612 5609 5608 5605 5603 5601 5599 5596 5593 5591 5587 5583 5579 5576 5572 5567 5563 5559 5556 5553 5550 5548 5545 5544 5544 5543 5543 5544 5544 5545 5546 5547 5548 5549 5551 5552 5554 5555 5556 5557 5558
5622 5618 5613 5609 5607 5606 5604 5602 5600 5598 5596 5594 5591 5588 5584 5581 5578 5575 5572 5568 5564 5562 5559 5556 5555 5553 5552 5551 5550 5550 5550 5550 5550 5550 5551 5552 5553 5553 5555 5556 5555 5555 5555 5555
5619 5615 5610 5607 5606 5604 5603 5601 5599 5597 5596 5594 5591 5588 5585 5582 5579 5576 5574 5571 5569 5566 5564 5561 5559 5558 5556 5555 5554 5553 5552 5552 5551 5551 5551 5551 5552 5552 5552 5552 5551 5550 5549 5548